| time (UTC) | temp C | wind direction | speed KPH | gust KPH | rain 1hr cm | rain 24hr cm | rain mn cm | humidity % | barometer mb |
| 20260906091026 | 23 | 0.0 | 3.2 | 0.00 | 0.00 | 0.00 | 89 | 1012.4 | |
| 20260906090232 | 23 | 221 | 0.0 | 4.8 | 0.00 | 0.00 | 0.00 | 89 | 1012.5 |
| 20260906085027 | 23 | 221 | 1.6 | 3.2 | 0.00 | 0.00 | 0.00 | 89 | 1012.4 |
| 20260906084026 | 23 | 0.0 | 1.6 | 0.00 | 0.00 | 0.00 | 89 | 1012.5 | |
| 20260906083026 | 23 | 221 | 0.0 | 1.6 | 0.00 | 0.00 | 0.00 | 89 | 1012.5 |
| 20260906082027 | 23 | 0.0 | 0.0 | 0.00 | 0.00 | 0.00 | 89 | 1012.6 | |
| 20260906081046 | 23 | 0.0 | 3.2 | 0.00 | 0.00 | 0.00 | 89 | 1012.6 | |
| 20260906080026 | 23 | 0.0 | 0.0 | 0.00 | 0.00 | 0.00 | 89 | 1012.6 | |
| 20260906075025 | 23 | 0.0 | 0.0 | 0.00 | 0.00 | 0.00 | 89 | 1012.5 | |
| 20260906074026 | 23 | 0.0 | 4.8 | 0.00 | 0.00 | 0.00 | 87 | 1012.6 | |
| 20260906073028 | 23 | 0.0 | 0.0 | 0.00 | 0.00 | 0.00 | 87 | 1012.7 | |
| 20260906072027 | 24 | 0.0 | 3.2 | 0.00 | 0.00 | 0.00 | 87 | 1012.7 | |
| 20260906071027 | 23 | 221 | 0.0 | 3.2 | 0.00 | 0.00 | 0.00 | 88 | 1012.6 |
| 20260906070028 | 23 | 0.0 | 0.0 | 0.00 | 0.00 | 0.00 | 87 | 1012.6 | |
| 20260906065028 | 24 | 0.0 | 0.0 | 0.00 | 0.00 | 0.00 | 87 | 1012.7 | |
| 20260906064027 | 24 | 0.0 | 0.0 | 0.00 | 0.00 | 0.00 | 86 | 1012.8 | |
| 20260906063107 | 24 | 0.0 | 0.0 | 0.00 | 0.00 | 0.00 | 86 | 1012.8 | |
| 20260906062027 | 24 | 0.0 | 0.0 | 0.00 | 0.00 | 0.00 | 85 | 1012.7 | |
| 20260906061025 | 24 | 0.0 | 3.2 | 0.00 | 0.00 | 0.00 | 85 | 1012.7 | |
| 20260906060026 | 24 | 221 | 1.6 | 3.2 | 0.00 | 0.00 | 0.00 | 85 | 1012.8 |
| 20260906055028 | 25 | 0.0 | 0.0 | 0.00 | 0.00 | 0.00 | 83 | 1012.9 | |
| 20260906054026 | 25 | 0.0 | 0.0 | 0.00 | 0.00 | 0.00 | 82 | 1013.1 | |
| 20260906053027 | 25 | 0.0 | 0.0 | 0.00 | 0.00 | 0.00 | 82 | 1013.2 | |
| 20260906052027 | 25 | 0.0 | 0.0 | 0.00 | 0.00 | 0.00 | 79 | 1013.1 | |
| 20260906051028 | 26 | 0.0 | 3.2 | 0.00 | 0.00 | 0.00 | 79 | 1013.1 | |
| 20260906050026 | 26 | 221 | 0.0 | 3.2 | 0.00 | 0.00 | 0.00 | 78 | 1013.2 |
| 20260906045026 | 26 | 221 | 0.0 | 3.2 | 0.00 | 0.00 | 0.00 | 76 | 1013.2 |
| 20260906044028 | 26 | 0.0 | 0.0 | 0.00 | 0.00 | 0.00 | 74 | 1013.2 | |
| 20260906043027 | 27 | 0.0 | 3.2 | 0.00 | 0.00 | 0.00 | 73 | 1013.2 | |
| 20260906042028 | 27 | 221 | 0.0 | 4.8 | 0.00 | 0.00 | 0.00 | 73 | 1013.2 |
| 20260906041046 | 27 | 224 | 1.6 | 6.4 | 0.00 | 0.00 | 0.00 | 73 | 1013.1 |
| 20260906040028 | 27 | 212 | 1.6 | 6.4 | 0.00 | 0.00 | 0.00 | 72 | 1013.1 |
| 20260906035027 | 27 | 231 | 1.6 | 4.8 | 0.00 | 0.00 | 0.00 | 71 | 1013.0 |
| 20260906034026 | 27 | 195 | 1.6 | 6.4 | 0.00 | 0.00 | 0.00 | 71 | 1013.0 |
| 20260906033026 | 27 | 243 | 3.2 | 8.0 | 0.00 | 0.00 | 0.00 | 71 | 1013.0 |
| 20260906032046 | 27 | 243 | 3.2 | 8.0 | 0.00 | 0.00 | 0.00 | 70 | 1013.0 |
| 20260906031025 | 27 | 233 | 1.6 | 6.4 | 0.00 | 0.00 | 0.00 | 70 | 1013.1 |
| 20260906030028 | 27 | 232 | 1.6 | 8.0 | 0.00 | 0.00 | 0.00 | 69 | 1013.1 |
| 20260906025046 | 27 | 233 | 4.8 | 8.0 | 0.00 | 0.00 | 0.00 | 69 | 1013.0 |
| 20260906024027 | 28 | 242 | 3.2 | 6.4 | 0.00 | 0.00 | 0.00 | 69 | 1013.0 |
| 20260906023025 | 28 | 228 | 3.2 | 6.4 | 0.00 | 0.00 | 0.00 | 67 | 1012.9 |
| 20260906022026 | 28 | 225 | 1.6 | 9.7 | 0.00 | 0.00 | 0.00 | 67 | 1012.9 |
| 20260906021028 | 28 | 235 | 4.8 | 9.7 | 0.00 | 0.00 | 0.00 | 66 | 1012.7 |
| 20260906020026 | 28 | 239 | 3.2 | 6.4 | 0.00 | 0.00 | 0.00 | 65 | 1012.6 |
| 20260906015028 | 28 | 239 | 1.6 | 8.0 | 0.00 | 0.00 | 0.00 | 64 | 1012.5 |
| 20260906014028 | 28 | 228 | 3.2 | 9.7 | 0.00 | 0.00 | 0.00 | 64 | 1012.4 |
| 20260906013025 | 29 | 239 | 4.8 | 9.7 | 0.00 | 0.00 | 0.00 | 63 | 1012.4 |
| 20260906012029 | 29 | 234 | 4.8 | 8.0 | 0.00 | 0.00 | 0.00 | 63 | 1012.3 |
| 20260906011029 | 29 | 231 | 3.2 | 8.0 | 0.00 | 0.00 | 0.00 | 64 | 1012.2 |
| 20260906010028 | 30 | 233 | 1.6 | 6.4 | 0.00 | 0.00 | 0.00 | 62 | 1012.2 |
| 20260906005025 | 30 | 201 | 1.6 | 4.8 | 0.00 | 0.00 | 0.00 | 61 | 1011.9 |
| 20260906004027 | 30 | 201 | 1.6 | 6.4 | 0.00 | 0.00 | 0.00 | 60 | 1011.9 |
| 20260906003026 | 31 | 233 | 1.6 | 6.4 | 0.00 | 0.00 | 0.00 | 59 | 1011.9 |
| 20260906002026 | 31 | 220 | 1.6 | 9.7 | 0.00 | 0.00 | 0.00 | 58 | 1011.8 |
| 20260906001026 | 31 | 221 | 3.2 | 9.7 | 0.00 | 0.00 | 0.00 | 58 | 1011.7 |
| 20260906000027 | 32 | 145 | 1.6 | 8.0 | 0.00 | 0.00 | 0.00 | 57 | 1011.7 |
| 20260905235026 | 32 | 173 | 1.6 | 8.0 | 0.00 | 0.00 | 0.00 | 55 | 1011.8 |
| 20260905234028 | 33 | 158 | 1.6 | 16.1 | 0.00 | 0.00 | 0.00 | 54 | 1011.9 |
| 20260905233027 | 33 | 166 | 4.8 | 16.1 | 0.00 | 0.00 | 0.00 | 53 | 1011.9 |
| 20260905232047 | 33 | 174 | 3.2 | 9.7 | 0.00 | 0.00 | 0.00 | 52 | 1011.7 |
| 20260905231025 | 34 | 200 | 3.2 | 11.3 | 0.00 | 0.00 | 0.00 | 50 | 1011.6 |
| 20260905230029 | 35 | 221 | 3.2 | 11.3 | 0.00 | 0.00 | 0.00 | 49 | 1011.6 |
| 20260905225027 | 35 | 192 | 3.2 | 11.3 | 0.00 | 0.00 | 0.00 | 50 | 1011.5 |
| 20260905224027 | 35 | 208 | 3.2 | 8.0 | 0.00 | 0.00 | 0.00 | 49 | 1011.4 |
| 20260905223028 | 35 | 172 | 3.2 | 9.7 | 0.00 | 0.00 | 0.00 | 48 | 1011.6 |
| 20260905222026 | 35 | 175 | 4.8 | 9.7 | 0.00 | 0.00 | 0.00 | 46 | 1011.7 |
| 20260905221027 | 35 | 165 | 3.2 | 12.9 | 0.00 | 0.00 | 0.00 | 47 | 1011.7 |
| 20260905220024 | 35 | 155 | 4.8 | 12.9 | 0.00 | 0.00 | 0.00 | 46 | 1011.8 |
| 20260905215026 | 35 | 215 | 3.2 | 12.9 | 0.00 | 0.00 | 0.00 | 49 | 1011.8 |
| 20260905214025 | 35 | 167 | 4.8 | 12.9 | 0.00 | 0.00 | 0.00 | 47 | 1011.8 |
| 20260905213029 | 36 | 201 | 3.2 | 19.3 | 0.00 | 0.00 | 0.00 | 45 | 1011.9 |
| 20260905212025 | 37 | 144 | 8.0 | 19.3 | 0.00 | 0.00 | 0.00 | 37 | 1012.0 |
| 20260905211046 | 37 | 111 | 3.2 | 11.3 | 0.00 | 0.00 | 0.00 | 36 | 1011.9 |
| 20260905210026 | 36 | 127 | 3.2 | 8.0 | 0.00 | 0.00 | 0.00 | 41 | 1011.9 |
| 20260905205047 | 37 | 279 | 3.2 | 8.0 | 0.00 | 0.00 | 0.00 | 38 | 1012.1 |
| 20260905204027 | 37 | 337 | 4.8 | 8.0 | 0.00 | 0.00 | 0.00 | 40 | 1012.2 |
| 20260905203027 | 37 | 31 | 3.2 | 11.3 | 0.00 | 0.00 | 0.00 | 39 | 1012.3 |
| 20260905202026 | 38 | 73 | 3.2 | 11.3 | 0.00 | 0.00 | 0.00 | 37 | 1012.4 |
| 20260905201025 | 37 | 44 | 3.2 | 9.7 | 0.00 | 0.00 | 0.00 | 39 | 1012.5 |
| 20260905200048 | 37 | 130 | 1.6 | 9.7 | 0.00 | 0.00 | 0.00 | 39 | 1012.8 |
| 20260905195047 | 37 | 132 | 3.2 | 11.3 | 0.00 | 0.00 | 0.00 | 39 | 1012.8 |
| 20260905194026 | 37 | 130 | 3.2 | 16.1 | 0.00 | 0.00 | 0.00 | 37 | 1012.8 |
| 20260905193027 | 37 | 96 | 4.8 | 12.9 | 0.00 | 0.00 | 0.00 | 39 | 1012.8 |
| 20260905192025 | 37 | 120 | 3.2 | 12.9 | 0.00 | 0.00 | 0.00 | 39 | 1012.8 |
| 20260905191029 | 37 | 82 | 4.8 | 11.3 | 0.00 | 0.00 | 0.00 | 40 | 1013.0 |
| 20260905190106 | 36 | 64 | 3.2 | 12.9 | 0.00 | 0.00 | 0.00 | 41 | 1013.1 |
| 20260905185027 | 36 | 91 | 3.2 | 19.3 | 0.00 | 0.00 | 0.00 | 44 | 1013.4 |
| 20260905184025 | 37 | 13 | 3.2 | 9.7 | 0.00 | 0.00 | 0.00 | 43 | 1013.6 |
| 20260905183025 | 36 | 237 | 3.2 | 9.7 | 0.00 | 0.00 | 0.00 | 43 | 1013.7 |
| 20260905182028 | 36 | 38 | 4.8 | 14.5 | 0.00 | 0.00 | 0.00 | 44 | 1013.9 |
| 20260905181028 | 35 | 278 | 8.0 | 14.5 | 0.00 | 0.00 | 0.00 | 44 | 1013.9 |
| 20260905180025 | 35 | 55 | 3.2 | 9.7 | 0.00 | 0.00 | 0.00 | 43 | 1014.0 |
| 20260905175047 | 36 | 128 | 4.8 | 14.5 | 0.00 | 0.00 | 0.00 | 40 | 1014.1 |
| 20260905174025 | 36 | 24 | 3.2 | 11.3 | 0.00 | 0.00 | 0.00 | 42 | 1014.3 |
| 20260905173028 | 36 | 106 | 3.2 | 12.9 | 0.00 | 0.00 | 0.00 | 41 | 1014.5 |
| 20260905172047 | 36 | 41 | 4.8 | 12.9 | 0.00 | 0.00 | 0.00 | 44 | 1014.5 |
| 20260905171046 | 35 | 55 | 3.2 | 8.0 | 0.00 | 0.00 | 0.00 | 45 | 1014.6 |
| 20260905170026 | 35 | 156 | 3.2 | 8.0 | 0.00 | 0.00 | 0.00 | 48 | 1014.7 |
| 20260905164028 | 35 | 354 | 4.8 | 9.7 | 0.00 | 0.00 | 0.00 | 52 | 1014.8 |
| 20260905163028 | 35 | 340 | 1.6 | 8.0 | 0.00 | 0.00 | 0.00 | 50 | 1015.0 |
| 20260905162048 | 35 | 43 | 3.2 | 8.0 | 0.00 | 0.00 | 0.00 | 52 | 1015.0 |
| 20260905161026 | 34 | 7 | 1.6 | 12.9 | 0.00 | 0.00 | 0.00 | 57 | 1015.2 |
| 20260905160027 | 33 | 336 | 6.4 | 12.9 | 0.00 | 0.00 | 0.00 | 57 | 1015.3 |
| 20260905155028 | 33 | 340 | 3.2 | 8.0 | 0.00 | 0.00 | 0.00 | 60 | 1015.2 |
| 20260905154025 | 32 | 340 | 4.8 | 11.3 | 0.00 | 0.00 | 0.00 | 63 | 1015.4 |
| 20260905153027 | 32 | 344 | 4.8 | 9.7 | 0.00 | 0.00 | 0.00 | 61 | 1015.4 |
| 20260905152028 | 32 | 355 | 4.8 | 14.5 | 0.00 | 0.00 | 0.00 | 65 | 1015.5 |
| 20260905151029 | 31 | 347 | 6.4 | 14.5 | 0.00 | 0.00 | 0.00 | 65 | 1015.6 |
| 20260905150046 | 31 | 22 | 3.2 | 11.3 | 0.00 | 0.00 | 0.00 | 64 | 1015.6 |
| 20260905145027 | 31 | 355 | 4.8 | 12.9 | 0.00 | 0.00 | 0.00 | 67 | 1015.4 |
| 20260905144029 | 31 | 352 | 4.8 | 9.7 | 0.00 | 0.00 | 0.00 | 67 | 1015.4 |
| 20260905143031 | 30 | 335 | 3.2 | 9.7 | 0.00 | 0.00 | 0.00 | 69 | 1015.3 |
| 20260905142028 | 30 | 17 | 3.2 | 9.7 | 0.00 | 0.00 | 0.00 | 70 | 1015.5 |
| 20260905141028 | 29 | 347 | 3.2 | 9.7 | 0.00 | 0.00 | 0.00 | 73 | 1015.3 |
| 20260905140027 | 28 | 352 | 4.8 | 8.0 | 0.00 | 0.00 | 0.00 | 77 | 1015.3 |
| 20260905135027 | 27 | 334 | 4.8 | 14.5 | 0.00 | 0.00 | 0.00 | 78 | 1015.2 |
| 20260905134032 | 27 | 331 | 8.0 | 14.5 | 0.00 | 0.00 | 0.00 | 80 | 1015.4 |
| 20260905133026 | 27 | 345 | 8.0 | 14.5 | 0.00 | 0.00 | 0.00 | 81 | 1015.6 |
| 20260905132026 | 26 | 337 | 4.8 | 11.3 | 0.00 | 0.00 | 0.00 | 83 | 1015.6 |
| 20260905131027 | 25 | 342 | 4.8 | 9.7 | 0.00 | 0.00 | 0.00 | 86 | 1015.6 |
| 20260905130049 | 25 | 289 | 3.2 | 6.4 | 0.00 | 0.00 | 0.00 | 88 | 1015.6 |
| 20260905125027 | 24 | 276 | 1.6 | 4.8 | 0.00 | 0.00 | 0.00 | 89 | 1015.6 |
| 20260905124046 | 24 | 253 | 1.6 | 4.8 | 0.00 | 0.00 | 0.00 | 90 | 1015.5 |
| 20260905123047 | 23 | 218 | 0.0 | 4.8 | 0.00 | 0.00 | 0.00 | 90 | 1015.4 |
| 20260905122026 | 23 | 224 | 1.6 | 6.4 | 0.00 | 0.00 | 0.00 | 92 | 1015.2 |
| 20260905121046 | 23 | 241 | 1.6 | 3.2 | 0.00 | 0.00 | 0.00 | 93 | 1015.2 |
| 20260905120028 | 23 | 241 | 0.0 | 3.2 | 0.00 | 0.00 | 0.00 | 92 | 1014.9 |
| 20260905115046 | 23 | 0.0 | 0.0 | 0.00 | 0.00 | 0.00 | 92 | 1015.0 | |
| 20260905114026 | 23 | 0.0 | 3.2 | 0.00 | 0.00 | 0.00 | 92 | 1014.9 | |
| 20260905113027 | 23 | 241 | 0.0 | 3.2 | 0.00 | 0.00 | 0.00 | 91 | 1014.7 |
| 20260905112026 | 23 | 0.0 | 3.2 | 0.00 | 0.00 | 0.00 | 92 | 1014.6 | |
| 20260905111027 | 23 | 241 | 0.0 | 3.2 | 0.00 | 0.00 | 0.00 | 91 | 1014.6 |
| 20260905110025 | 23 | 241 | 1.6 | 4.8 | 0.00 | 0.00 | 0.00 | 90 | 1014.4 |
| 20260905105027 | 23 | 241 | 1.6 | 4.8 | 0.00 | 0.00 | 0.00 | 90 | 1014.3 |
| 20260905104047 | 23 | 241 | 1.6 | 8.0 | 0.00 | 0.00 | 0.00 | 90 | 1014.4 |
| 20260905103045 | 23 | 243 | 3.2 | 8.0 | 0.00 | 0.00 | 0.00 | 90 | 1014.3 |
| 20260905102048 | 23 | 248 | 3.2 | 8.0 | 0.00 | 0.00 | 0.00 | 89 | 1014.5 |
| 20260905101026 | 23 | 235 | 3.2 | 8.0 | 0.00 | 0.00 | 0.00 | 89 | 1014.5 |
| 20260905100026 | 23 | 262 | 1.6 | 6.4 | 0.00 | 0.00 | 0.00 | 89 | 1014.6 |
| 20260905095026 | 24 | 273 | 1.6 | 8.0 | 0.00 | 0.00 | 0.00 | 89 | 1014.6 |
| 20260905094028 | 24 | 252 | 4.8 | 8.0 | 0.00 | 0.00 | 0.00 | 88 | 1014.4 |
| 20260905093028 | 24 | 244 | 3.2 | 8.0 | 0.00 | 0.00 | 0.00 | 88 | 1014.4 |
| 20260905092031 | 24 | 250 | 3.2 | 6.4 | 0.00 | 0.00 | 0.00 | 87 | 1014.4 |